Temp
62 65 74 76 77 77 77 77 76 76 77 77 77 77 76 76 76 76 76 76 76 77 78 77 77 76 76 76 75 75 75 73 73 73 73 74 75 78 78 75 75 73 77
63 65 73 76 77 77 76 76 76 76 76 77 77 77 77 76 76 75 75 76 77 77 77 76 75 74 74 73 74 74 73 72 71 71 71 70 72 76 77 75 75 75 77
64 66 70 74 76 76 76 75 75 76 76 77 77 76 76 76 75 74 75 75 75 75 75 74 73 73 72 72 72 72 71 70 69 69 68 65 67 75 78 76 76 77 76
65 65 67 73 75 75 75 75 75 76 76 76 76 75 75 74 74 74 74 74 75 74 74 73 72 71 71 71 71 70 70 69 67 67 62 64 66 73 77 77 77 76 75
62 64 66 71 74 74 75 75 75 76 76 75 75 75 74 74 74 72 72 73 73 73 72 72 71 70 70 70 70 69 69 67 65 61 59 60 61 71 76 76 75 74 73
60 62 67 71 73 74 74 74 74 75 75 75 74 74 74 73 72 71 71 72 71 71 71 70 70 70 70 69 68 68 67 65 61 55 56 60 62 73 76 76 75 74 73
58 60 63 70 72 74 74 74 74 74 75 74 74 73 73 71 71 70 70 70 70 70 70 70 69 69 68 67 67 66 65 63 53 54 54 56 62 74 76 75 75 74 75
58 59 62 67 70 71 72 73 73 73 74 73 73 72 71 70 70 70 70 70 69 69 69 69 68 67 67 66 65 64 63 59 54 52 53 55 68 73 74 73 74 73 74
57 58 59 61 64 67 69 70 71 72 72 72 71 71 70 69 69 69 69 69 69 69 68 67 67 66 66 65 64 62 61 59 48 50 55 54 68 71 72 72 72 72 72
55 56 57 58 59 60 61 66 67 69 70 70 69 68 66 66 67 67 66 68 69 68 67 66 65 65 64 63 62 60 58 56 48 49 50 56 67 70 71 71 71 71 72
53 54 54 55 56 56 57 59 63 66 66 66 64 63 57 51 53 55 59 66 67 66 65 64 63 61 60 60 59 57 54 47 47 47 48 61 65 68 69 70 70 70 71
53 54 53 53 53 53 56 55 55 57 56 54 53 51 49 47 48 52 57 63 64 64 64 63 61 57 51 45 45 50 45 45 45 46 47 60 63 66 68 68 69 69 70
56 55 54 52 51 51 52 51 50 50 49 49 49 47 46 46 46 45 45 45 45 50 45 47 45 44 44 44 44 43 44 43 42 44 49 57 61 64 66 67 68 69 69
52 54 54 52 50 49 49 50 48 49 46 46 46 45 43 42 42 42 41 41 41 40 41 41 41 42 43 44 44 43 43 42 42 43 44 54 58 63 65 67 68 68 69
51 54 52 51 52 51 48 47 47 47 48 46 44 44 43 42 41 41 40 39 39 40 40 40 40 41 42 43 43 43 42 42 42 42 41 52 56 60 63 66 67 67 68
55 53 53 51 52 51 51 49 50 48 45 44 42 44 43 42 41 40 39 39 39 39 39 39 40 40 40 41 42 42 42 41 42 42 42 42 54 57 60 63 65 66 67
56 55 51 52 52 51 51 50 49 48 45 44 44 42 42 42 41 40 39 38 38 38 38 38 38 38 39 40 41 41 41 41 41 42 42 42 43 52 57 60 62 63 65
56 53 53 54 51 51 52 50 50 46 46 46 43 43 42 42 41 39 38 37 37 37 37 37 37 37 37 38 38 38 38 39 41 41 42 42 42 43 49 56 57 60 62
56 55 52 51 50 50 51 50 49 46 46 45 42 43 41 42 41 40 38 37 37 36 36 37 35 37 36 37 39 38 37 37 39 42 40 41 42 41 41 49 51 52 57
55 56 54 51 52 50 50 46 42 41 43 40 42 42 41 42 40 39 37 36 36 35 35 35 35 34 34 34 40 39 36 37 37 37 38 41 40 40 40 40 39 42 52
49 51 52 49 50 49 46 43 42 44 42 41 42 43 42 41 40 40 38 36 35 35 35 35 34 34 33 32 36 36 36 36 37 36 37 37 38 38 38 38 38 39 40
51 50 49 49 49 50 49 49 45 48 42 45 40 39 42 39 39 40 38 37 36 34 34 34 34 32 32 31 34 33 35 36 36 37 36 37 35 36 37 39 38 39 38
46 46 49 49 48 50 48 46 37 36 35 34 34 37 38 40 39 39 39 37 36 36 35 34 33 34 32 31 31 36 33 35 31 33 35 34 34 34 34 35 37 37 38
50 46 47 47 47 49 48 45 45 44 43 43 45 44 40 40 39 38 38 37 36 34 32 33 33 33 33 32 31 33 30 32 33 34 32 32 33 35 33 34 34 35 37
48 44 44 45 45 47 47 47 46 46 47 38 38 39 38 37 38 37 36 35 34 34 33 33 31 32 32 32 31 30 29 28 28 30 31 30 31 31 32 32 33 33 36
42 40 41 42 43 45 46 45 47 46 37 38 36 38 36 36 35 34 35 36 35 34 33 33 31 31 31 31 31 30 30 29 27 27 26 26 26 29 30 31 32 32 33
MSLP
1015.75 1015.54 1015.51 1015.77 1016.11 1016.45 1016.70 1016.91 1017.14 1017.30 1017.35 1017.38 1017.57 1017.80 1017.91 1017.94 1018.08 1018.15 1018.24 1018.36 1018.36 1018.31 1018.33 1018.43 1018.52 1018.71 1018.83 1018.95 1018.91 1018.93 1018.96 1019.08 1019.17 1019.19 1019.16 1018.93 1018.72 1018.47 1018.56 1018.70 1018.69 1018.77 1018.63
1014.99 1015.40 1015.46 1015.74 1016.03 1016.27 1016.53 1016.80 1017.12 1017.34 1017.54 1017.66 1017.77 1017.99 1018.20 1018.30 1018.46 1018.44 1018.56 1018.58 1018.39 1018.42 1018.51 1018.62 1018.90 1019.03 1019.27 1019.25 1019.15 1019.28 1019.34 1019.38 1019.45 1019.42 1019.29 1019.27 1019.08 1018.82 1018.71 1018.72 1018.76 1018.80 1018.77
1015.00 1015.40 1015.53 1015.70 1016.02 1016.27 1016.50 1016.75 1017.06 1017.30 1017.44 1017.65 1017.84 1018.05 1018.21 1018.48 1018.73 1018.81 1018.85 1018.85 1018.71 1018.87 1018.96 1019.10 1019.45 1019.72 1019.72 1019.81 1019.74 1019.82 1019.83 1019.90 1019.76 1019.69 1019.73 1019.65 1019.53 1019.12 1018.80 1018.85 1018.89 1019.03 1019.07
1014.85 1015.25 1015.58 1015.71 1015.98 1016.31 1016.50 1016.79 1017.04 1017.22 1017.45 1017.71 1017.95 1018.22 1018.52 1018.75 1018.95 1019.02 1019.19 1019.09 1019.03 1019.08 1019.33 1019.66 1019.80 1019.95 1020.05 1020.14 1020.12 1020.29 1020.25 1020.25 1020.21 1020.03 1020.06 1019.99 1019.85 1019.49 1019.04 1018.95 1019.05 1019.12 1019.22
1014.95 1015.23 1015.57 1015.80 1016.06 1016.39 1016.52 1016.84 1017.08 1017.18 1017.36 1017.77 1018.13 1018.47 1018.70 1018.85 1019.05 1019.37 1019.53 1019.39 1019.30 1019.57 1019.81 1019.95 1020.05 1020.12 1020.19 1020.24 1020.25 1020.41 1020.42 1020.54 1020.49 1020.45 1020.55 1020.29 1020.09 1019.76 1019.37 1019.37 1019.25 1019.35 1019.40
1015.05 1015.21 1015.44 1015.73 1016.05 1016.36 1016.69 1016.85 1017.16 1017.40 1017.51 1017.92 1018.34 1018.56 1018.76 1019.03 1019.36 1019.60 1019.58 1019.59 1019.71 1019.98 1020.16 1020.17 1020.20 1020.33 1020.39 1020.41 1020.53 1020.55 1020.66 1020.63 1020.67 1020.91 1020.80 1020.48 1020.11 1019.74 1019.37 1019.39 1019.44 1019.26 1019.42
1015.31 1015.44 1015.61 1015.72 1015.96 1016.24 1016.61 1016.92 1017.28 1017.49 1017.71 1018.19 1018.46 1018.68 1018.95 1019.27 1019.53 1019.68 1019.90 1019.96 1020.15 1020.19 1020.31 1020.36 1020.39 1020.60 1020.65 1020.74 1020.88 1020.88 1020.87 1020.88 1021.15 1021.10 1021.20 1020.61 1020.26 1019.62 1019.52 1019.58 1019.58 1019.50 1019.35
1015.25 1015.53 1015.72 1015.75 1015.98 1016.27 1016.50 1016.76 1017.10 1017.48 1017.67 1018.19 1018.44 1018.84 1019.15 1019.37 1019.74 1019.97 1020.04 1020.18 1020.27 1020.39 1020.54 1020.61 1020.87 1020.97 1021.10 1021.15 1021.07 1021.12 1021.14 1021.23 1021.39 1021.35 1021.37 1021.03 1020.30 1019.93 1019.84 1019.93 1019.77 1019.83 1019.73
1015.51 1015.66 1015.73 1015.79 1015.98 1016.29 1016.53 1016.81 1017.12 1017.36 1017.73 1018.17 1018.53 1018.95 1019.32 1019.61 1019.89 1020.04 1020.13 1020.25 1020.41 1020.60 1020.75 1021.02 1021.14 1021.26 1021.44 1021.40 1021.45 1021.49 1021.57 1021.46 1021.83 1021.64 1021.57 1021.33 1020.64 1020.24 1020.19 1020.19 1020.16 1020.12 1020.10
1015.62 1015.68 1015.86 1015.92 1015.99 1016.26 1016.50 1016.69 1017.04 1017.40 1017.75 1018.14 1018.56 1018.96 1019.43 1019.70 1019.92 1020.18 1020.34 1020.26 1020.45 1020.69 1020.98 1021.13 1021.35 1021.48 1021.61 1021.68 1021.64 1021.73 1021.89 1021.93 1021.98 1021.85 1021.85 1021.54 1020.99 1020.58 1020.41 1020.34 1020.41 1020.25 1020.22
1015.84 1015.62 1015.64 1015.81 1016.00 1016.25 1016.51 1016.69 1016.96 1017.34 1017.83 1018.22 1018.65 1019.07 1019.54 1020.00 1020.31 1020.48 1020.53 1020.46 1020.64 1020.88 1021.03 1021.20 1021.55 1021.71 1021.87 1021.97 1021.96 1022.11 1022.23 1022.36 1022.28 1022.33 1022.29 1021.74 1021.27 1020.82 1020.69 1020.65 1020.58 1020.55 1020.43
1015.53 1015.37 1015.55 1015.68 1015.86 1016.17 1016.37 1016.65 1016.93 1017.24 1017.72 1018.22 1018.76 1019.27 1019.80 1020.29 1020.49 1020.62 1020.68 1020.68 1020.85 1021.00 1021.19 1021.39 1021.77 1022.05 1022.48 1022.61 1022.58 1022.61 1022.74 1022.61 1022.68 1022.65 1022.51 1022.02 1021.41 1021.23 1021.05 1020.84 1020.79 1020.75 1020.59
1014.03 1014.83 1015.01 1015.47 1015.71 1016.07 1016.34 1016.63 1016.92 1017.33 1017.80 1018.29 1018.73 1019.26 1019.87 1020.33 1020.51 1020.81 1021.13 1021.47 1021.67 1021.81 1022.04 1022.16 1022.44 1022.65 1022.79 1022.80 1022.83 1022.89 1022.89 1022.86 1022.96 1022.71 1022.55 1022.18 1021.90 1021.43 1021.09 1021.04 1020.78 1020.75 1020.60
1013.74 1013.94 1014.58 1015.06 1015.55 1015.92 1016.22 1016.51 1016.88 1017.29 1017.68 1018.24 1018.69 1019.11 1019.76 1020.42 1020.80 1021.13 1021.60 1021.99 1022.14 1022.27 1022.39 1022.60 1022.77 1022.88 1022.96 1022.90 1022.91 1023.11 1023.13 1023.24 1023.06 1023.01 1022.83 1022.51 1022.15 1021.75 1021.31 1020.97 1020.82 1020.73 1020.74
1012.96 1013.32 1013.78 1014.55 1014.97 1015.44 1016.07 1016.41 1016.77 1017.03 1017.29 1017.72 1018.37 1018.85 1019.39 1019.99 1020.52 1020.97 1021.41 1021.75 1021.96 1022.20 1022.44 1022.71 1022.75 1022.75 1022.95 1022.98 1023.13 1023.08 1023.23 1023.30 1023.18 1023.00 1022.77 1022.65 1022.29 1022.08 1021.57 1021.32 1021.10 1021.01 1020.92
1011.86 1012.07 1012.78 1013.16 1013.83 1014.62 1015.17 1015.60 1015.97 1016.52 1016.97 1017.56 1018.03 1018.36 1018.94 1019.45 1019.97 1020.66 1021.15 1021.60 1021.97 1022.10 1022.36 1022.61 1022.75 1022.85 1023.13 1023.09 1023.26 1023.26 1023.39 1023.37 1023.23 1023.02 1022.80 1022.84 1022.53 1022.44 1022.11 1021.76 1021.52 1021.23 1021.03
1010.14 1011.01 1011.35 1012.11 1013.01 1013.46 1014.05 1014.74 1015.32 1015.93 1016.72 1017.23 1017.56 1018.02 1018.54 1019.07 1019.59 1020.13 1020.72 1021.36 1021.76 1022.13 1022.39 1022.87 1023.00 1023.24 1023.41 1023.40 1023.45 1023.43 1023.53 1023.46 1023.36 1023.15 1022.95 1022.96 1022.91 1022.72 1022.42 1022.19 1022.04 1021.78 1021.38
1009.07 1009.39 1010.14 1010.93 1011.69 1012.49 1013.01 1013.75 1014.54 1015.22 1015.82 1016.40 1017.06 1017.51 1018.09 1018.62 1019.03 1019.74 1020.49 1021.25 1021.71 1022.32 1022.69 1022.97 1023.15 1023.44 1023.41 1023.37 1023.42 1023.39 1023.49 1023.40 1023.34 1023.34 1023.24 1023.24 1023.09 1023.14 1023.05 1022.84 1022.74 1022.33 1022.03
1007.56 1008.24 1008.97 1009.62 1010.25 1011.10 1012.27 1013.10 1013.80 1014.55 1015.21 1015.74 1016.45 1016.98 1017.53 1018.08 1018.60 1019.27 1020.07 1020.79 1021.43 1022.18 1022.61 1022.57 1023.10 1023.26 1023.45 1023.38 1023.40 1023.64 1023.72 1023.70 1023.57 1023.52 1023.58 1023.55 1023.46 1023.51 1023.55 1023.44 1023.28 1023.00 1022.82
1006.47 1006.98 1007.64 1008.54 1009.19 1010.28 1011.60 1012.69 1013.51 1014.30 1014.91 1015.48 1016.01 1016.53 1017.09 1017.62 1018.20 1018.91 1019.75 1020.52 1021.21 1021.93 1022.41 1022.59 1022.92 1023.39 1023.49 1023.51 1023.49 1023.69 1023.90 1024.07 1024.02 1023.93 1023.87 1023.80 1023.70 1023.84 1023.82 1023.80 1023.84 1023.67 1023.36
1005.86 1006.55 1007.13 1007.93 1008.48 1009.59 1010.60 1011.72 1013.03 1013.09 1014.06 1014.82 1015.09 1015.57 1016.29 1017.04 1017.76 1018.43 1019.28 1020.17 1020.74 1021.42 1021.75 1022.18 1022.67 1023.26 1023.53 1023.41 1023.53 1023.98 1024.17 1024.19 1024.35 1024.30 1024.16 1024.15 1024.00 1024.10 1024.04 1023.99 1023.98 1023.98 1023.96
1004.94 1005.48 1006.23 1006.84 1007.80 1008.34 1009.12 1009.95 1010.94 1011.85 1012.93 1013.46 1014.37 1015.13 1015.69 1016.47 1017.19 1017.91 1018.61 1019.41 1020.07 1020.86 1021.34 1021.68 1021.96 1022.99 1023.26 1023.26 1023.66 1024.18 1024.53 1024.64 1024.40 1024.37 1024.36 1024.34 1024.41 1024.17 1024.07 1024.09 1024.15 1024.18 1024.10
1004.77 1004.95 1005.19 1005.76 1006.49 1007.45 1008.69 1009.90 1011.05 1011.98 1012.99 1013.73 1014.31 1014.81 1015.10 1015.65 1016.34 1017.01 1017.82 1018.65 1019.49 1020.05 1020.65 1021.02 1021.41 1021.87 1022.71 1023.34 1023.20 1023.36 1024.50 1024.74 1024.98 1024.82 1024.56 1024.37 1024.39 1024.43 1024.37 1024.25 1024.15 1024.28 1024.29
1003.69 1004.05 1004.60 1005.66 1006.54 1006.79 1007.39 1008.53 1009.37 1009.90 1011.03 1011.16 1011.80 1013.14 1014.18 1014.82 1015.45 1016.23 1017.09 1017.91 1018.71 1019.52 1020.23 1020.64 1021.13 1021.42 1021.67 1022.80 1023.47 1023.35 1023.32 1023.68 1024.66 1025.09 1024.89 1024.76 1024.69 1024.64 1024.62 1024.55 1024.26 1024.13 1024.07
1003.07 1003.54 1004.24 1004.66 1005.87 1006.81 1007.25 1007.12 1007.78 1008.67 1009.60 1010.43 1011.52 1012.75 1013.77 1014.73 1015.31 1015.93 1016.52 1017.41 1018.21 1018.92 1019.50 1020.06 1020.68 1020.90 1021.14 1021.76 1022.29 1023.32 1023.88 1024.26 1024.46 1024.77 1025.01 1025.06 1024.88 1024.98 1024.98 1025.09 1024.86 1024.75 1024.56
1003.81 1004.05 1004.12 1004.76 1005.29 1006.45 1007.36 1007.72 1007.84 1008.47 1009.13 1010.11 1011.28 1012.20 1013.31 1014.26 1014.94 1015.42 1015.88 1016.42 1017.11 1017.93 1018.64 1019.29 1019.95 1020.36 1020.81 1021.14 1021.54 1022.00 1022.43 1023.38 1024.20 1024.58 1025.25 1025.23 1025.23 1025.05 1025.07 1024.92 1024.95 1024.93 1024.98
Wind_Speed
5 7 13 15 14 14 15 13 11 9 8 8 9 8 8 7 7 7 6 3 3 6 10 11 11 13 13 10 10 12 13 15 15 15 14 14 13 9 5 6 6 4 7
7 7 12 14 16 16 16 14 12 11 11 11 11 10 7 7 8 10 9 7 8 9 11 13 13 12 13 13 14 13 14 14 14 14 15 13 13 14 8 8 6 5 10
10 7 7 11 14 14 14 14 14 14 14 12 11 10 10 10 8 6 7 7 10 12 12 12 10 10 11 9 11 11 12 11 12 14 14 7 7 14 8 8 8 11 12
9 7 7 10 11 11 13 13 13 14 13 12 12 10 10 10 10 9 5 5 6 9 9 8 9 9 9 10 11 10 11 12 13 12 6 6 7 13 12 7 8 9 10
7 6 6 9 12 10 13 13 12 13 16 13 10 9 10 9 8 8 8 8 8 8 8 8 9 9 9 10 11 11 12 12 13 9 6 5 5 8 10 11 5 6 8
7 7 9 12 13 12 10 12 10 11 12 12 11 12 12 10 10 9 8 9 10 9 8 9 9 10 10 11 11 12 12 13 12 7 6 6 5 9 11 9 12 1 5
6 5 5 12 13 16 16 14 14 13 13 14 13 11 12 11 9 8 8 9 9 9 9 9 10 10 11 11 11 12 13 13 6 6 5 6 6 10 10 11 13 16 6
8 6 5 9 10 12 15 15 15 15 14 15 14 13 12 11 10 9 9 10 10 10 10 11 11 10 10 10 11 11 13 12 7 6 6 5 10 11 11 12 12 14 13
5 6 5 6 7 9 11 12 14 15 15 15 15 14 12 12 11 10 10 11 11 11 11 10 10 10 10 10 11 11 12 12 6 4 5 4 11 10 9 10 11 11 10
6 6 6 5 6 6 5 10 9 12 12 13 12 11 11 9 10 10 7 11 12 13 12 11 11 10 10 10 11 11 11 11 6 5 4 5 11 10 10 10 9 10 10
5 7 7 7 6 6 6 6 9 12 11 11 10 12 9 4 5 6 5 11 13 13 12 12 11 10 10 10 10 10 9 4 5 4 3 10 11 10 10 9 10 9 8
11 11 8 7 7 7 5 6 6 6 5 6 6 7 5 5 5 5 4 8 10 11 11 11 11 10 7 3 3 6 3 4 4 3 3 11 10 10 9 8 8 8 8
16 9 12 9 7 7 5 4 3 3 4 4 7 7 6 4 3 3 3 3 4 6 4 5 5 4 5 3 4 4 4 4 3 3 6 11 10 9 7 7 8 8 8
13 14 11 10 9 8 5 5 5 5 4 5 5 7 5 4 4 5 4 4 3 3 4 4 3 4 4 4 4 4 4 3 2 2 4 9 9 9 8 7 8 9 9
13 14 14 12 13 10 8 5 5 6 6 6 6 7 6 6 5 5 5 4 4 3 4 4 4 4 4 4 3 4 4 4 5 2 2 9 10 10 9 9 8 8 8
15 16 14 17 16 13 13 11 9 7 6 5 5 7 8 5 6 5 5 4 4 3 3 3 3 4 3 3 4 4 4 4 4 5 3 4 11 11 11 10 9 9 9
18 14 19 18 16 17 17 12 9 7 6 7 7 7 8 7 7 7 5 5 4 3 5 4 3 3 3 1 2 2 3 3 3 5 4 4 5 12 13 13 12 12 9
14 19 16 16 19 18 17 13 9 9 9 8 7 7 9 8 8 7 5 5 5 4 4 4 3 2 2 2 1 3 3 3 4 5 5 4 4 5 10 18 16 13 12
17 16 17 18 20 20 15 11 11 10 9 7 6 7 9 9 8 7 6 5 6 5 4 4 2 2 1 1 2 4 4 4 5 4 6 6 7 6 4 12 16 14 13
13 16 15 15 17 17 11 8 5 5 6 5 7 8 9 8 9 8 6 7 6 5 4 3 3 3 2 0 2 4 4 3 4 4 5 4 5 6 5 6 5 6 14
8 11 15 15 15 14 12 12 8 13 9 8 9 11 11 9 10 9 6 7 6 7 6 6 4 4 1 1 3 3 4 3 5 5 3 4 6 5 6 5 4 4 5
11 13 13 15 15 16 13 11 4 10 7 8 7 8 10 10 10 10 10 9 9 6 7 7 6 4 2 2 4 2 2 2 2 2 2 3 5 3 5 6 6 6 5
10 13 15 16 17 15 13 8 4 6 4 4 4 6 9 13 13 12 12 10 10 8 8 7 6 6 5 2 3 5 2 3 1 2 1 1 5 4 4 4 4 4 4
11 8 9 9 12 14 17 15 15 10 10 9 11 9 10 13 13 13 12 11 11 7 7 7 5 4 5 5 2 2 4 4 4 1 2 2 3 2 3 4 3 2 3
6 9 8 12 12 13 15 17 15 14 9 4 5 10 10 9 11 11 11 10 10 8 7 9 7 7 4 5 4 4 2 4 3 3 3 3 3 1 3 4 4 3 3
5 2 7 10 11 10 12 13 16 15 8 9 8 10 9 8 8 11 12 12 11 10 10 9 7 8 6 4 3 4 5 5 4 4 2 3 2 3 2 2 2 3 3
Wind_Direction
233 188 177 174 174 177 174 172 170 167 164 153 158 144 125 115 122 126 125 138 150 120 98 85 70 57 54 52 56 51 46 34 26 19 18 17 16 15 67 69 61 25 23
146 177 176 177 180 181 180 174 175 177 177 163 157 150 146 144 132 107 79 75 98 97 83 76 62 57 48 39 41 35 36 29 24 14 18 17 9 14 65 60 42 45 43
152 167 167 164 180 181 180 172 177 188 172 166 155 148 144 122 97 77 88 78 84 86 78 73 68 54 56 56 48 36 32 24 30 23 20 15 355 9 44 69 51 35 29
155 158 162 164 163 174 178 173 178 175 163 146 132 128 119 116 122 108 111 105 98 94 92 97 90 83 71 64 60 49 37 28 26 29 19 12 3 0 10 39 50 51 38
152 153 159 162 171 176 166 166 180 171 156 141 140 160 166 165 154 152 147 135 127 114 110 101 93 83 78 73 68 52 46 40 37 35 19 4 10 346 357 2 36 44 40
158 153 165 168 179 175 177 169 173 167 160 161 176 188 173 162 155 153 140 129 121 121 112 98 91 87 82 76 66 66 58 51 46 34 27 15 4 4 9 17 15 8 43
156 157 164 174 184 189 189 183 184 183 176 182 184 171 162 158 153 144 140 128 124 115 105 98 89 84 79 74 67 59 58 54 50 44 18 15 343 27 25 16 27 28 22
155 163 175 181 189 186 195 194 188 187 180 178 176 169 164 159 157 152 143 132 122 113 106 94 90 86 78 75 72 65 58 55 43 39 22 4 16 29 32 28 23 24 24
156 161 177 173 170 179 190 181 187 180 177 177 172 172 165 163 161 151 146 138 130 121 109 99 90 84 78 71 67 62 59 59 53 42 20 350 14 25 25 25 20 18 16
176 183 185 181 169 171 177 173 181 171 170 172 169 160 152 154 149 145 151 141 136 129 121 113 106 100 85 74 64 58 52 49 47 41 19 2 16 17 16 16 11 11 11
225 205 190 184 180 173 171 176 170 164 165 163 151 133 111 110 108 115 177 147 142 136 127 118 112 102 89 76 69 58 51 36 39 30 8 20 17 16 14 14 10 10 11
214 212 202 191 185 173 171 175 161 156 150 141 136 126 129 144 148 154 136 136 136 131 125 117 108 96 84 71 46 55 47 50 40 29 6 12 18 14 7 9 8 6 12
209 203 200 194 182 176 183 169 159 153 144 147 150 147 147 146 143 112 85 63 61 81 63 89 86 72 77 66 52 48 41 38 24 20 3 12 9 11 14 7 13 7 16
200 207 197 192 187 190 171 180 170 166 162 165 167 155 152 154 157 149 141 151 146 144 123 114 115 119 103 87 70 58 49 37 34 11 11 21 19 18 22 24 26 22 16
214 206 198 188 194 191 188 178 177 186 180 172 167 169 160 166 164 150 157 160 160 151 150 142 138 121 106 97 80 70 50 30 19 22 21 15 29 30 32 32 38 32 31
216 207 192 198 194 186 195 190 193 185 174 170 173 178 173 165 158 163 160 168 165 160 140 135 135 114 89 68 51 40 43 34 32 33 31 14 35 39 32 30 35 35 36
215 203 200 195 193 194 197 193 189 184 173 181 185 175 175 172 170 165 159 162 167 147 132 131 106 100 108 127 99 65 50 26 47 57 48 37 35 40 46 44 37 32 35
206 202 192 191 192 197 198 191 189 182 183 187 182 176 179 177 168 160 155 166 150 151 154 147 139 121 111 79 24 30 45 47 47 61 51 43 47 44 40 48 41 39 36
210 202 197 189 193 195 196 188 188 180 188 187 173 179 181 179 168 162 161 157 153 154 166 154 112 130 116 36 33 41 39 47 53 46 54 57 51 50 41 25 30 29 23
207 203 196 191 193 186 179 168 155 163 184 159 182 186 178 180 169 158 155 154 154 153 165 160 137 64 109 47 52 68 58 69 58 58 78 65 51 47 31 30 24 19 29
202 194 196 186 187 170 174 173 179 196 184 190 188 186 183 177 172 168 161 158 162 172 174 163 126 142 55 15 105 52 43 77 50 45 63 50 50 33 31 28 21 19 11
208 200 191 192 181 185 184 187 174 183 196 195 179 180 178 170 171 172 170 176 174 161 167 175 158 143 130 35 129 101 58 356 37 50 92 79 45 42 37 25 18 11 15
222 200 197 193 183 181 174 155 81 84 65 121 171 182 185 180 178 177 177 174 176 173 181 182 169 165 144 55 65 139 111 214 356 316 310 77 51 38 29 13 19 11 24
242 202 184 176 180 180 169 172 179 187 182 202 193 192 190 186 180 177 177 176 178 174 171 177 172 175 134 154 113 60 69 135 166 316 316 311 351 54 7 339 349 13 53
226 191 182 162 170 184 188 184 183 192 188 145 146 168 179 184 184 180 177 171 174 177 174 170 171 175 179 148 151 154 90 50 61 124 229 319 4 313 328 320 329 359 33
359 178 157 165 165 172 187 194 198 197 153 151 160 170 173 176 179 185 179 182 181 176 175 179 177 174 180 156 153 161 160 163 180 155 167 234 240 288 294 326 12 52 59